This demonstration page uses our WeatherBlox Daily Observations layout. Learn more.

Left ArrowRight Arrow

Hourly Observations for November 24, 2016

Temp ( °F °C ) Dew Point ( °F °C ) Humidity (%) Winds ( mph kmh ) Pressure ( in mb ) Visibility ( mi km ) Precip ( " mm )
12:53 am 00:53 Clear 37 2.8 32 0 82 82 NNE 6 9 30.13 1020 10 16 0.00 0.00
1:53 am 01:53 Clear 36 2.2 31 -0.6 82 82 NE 5 7 30.10 1019 10 16 0.00 0.00
2:53 am 02:53 Clear 36 2.2 31 -0.6 82 82 NE 5 7 30.09 1019 10 16 0.00 0.00
3:53 am 03:53 Clear 35 1.7 30 -1.1 82 82 Calm 30.07 1018 10 16 0.00 0.00
4:53 am 04:53 Clear 33 0.6 30 -1.1 89 89 NNE 3 6 30.07 1018 10 16 0.00 0.00
5:53 am 05:53 Clear 33 0.6 30 -1.1 89 89 ENE 6 9 30.09 1019 10 16 0.00 0.00
6:53 am 06:53 Clear 32 0 30 -1.1 92 92 N 7 11 30.11 1020 10 16 0.00 0.00
7:53 am 07:53 Sunny 34 1.1 31 -0.6 89 89 N 5 7 30.12 1020 10 16 0.00 0.00
8:53 am 08:53 Sunny 44 6.7 34 1.1 68 68 NNE 3 6 30.13 1020 10 16 0.00 0.00
9:53 am 09:53 Sunny 51 10.6 35 1.7 54 54 Calm 30.14 1021 10 16 0.00 0.00
10:53 am 10:53 Sunny 57 13.9 35 1.7 44 44 Calm 30.14 1021 10 16 0.00 0.00
11:53 am 11:53 Sunny 64 17.8 35 1.7 34 34 VRB 5 7 30.11 1020 10 16 0.00 0.00
12:53 pm 12:53 Sunny 66 18.9 36 2.2 33 33 VRB 5 7 30.08 1019 10 16 0.00 0.00
1:53 pm 13:53 Sunny 70 21.1 33 0.6 26 26 NNW 9 15 30.06 1018 10 16 0.00 0.00
2:53 pm 14:53 Sunny 72 22.2 32 0 23 23 N 5 7 30.04 1017 10 16 0.00 0.00
3:53 pm 15:53 Sunny 73 22.8 31 -0.6 21 21 NNE 7 11 30.04 1017 10 16 0.00 0.00
4:53 pm 16:53 Sunny 70 21.1 31 -0.6 23 23 NNE 5 7 30.06 1018 10 16 0.00 0.00
5:53 pm 17:53 Clear 66 18.9 31 -0.6 27 27 ENE 3 6 30.08 1019 10 16 0.00 0.00
6:53 pm 18:53 Clear 57 13.9 35 1.7 44 44 NE 6 9 30.12 1020 10 16 0.00 0.00
7:53 pm 19:53 Clear 54 12.2 33 0.6 45 45 N 12 19 30.16 1021 10 16 0.00 0.00
8:53 pm 20:53 Clear 50 10 30 -1.1 46 46 NNW 9 15 30.17 1022 10 16 0.00 0.00
9:53 pm 21:53 Clear 47 8.3 30 -1.1 52 52 N 9 15 30.19 1022 10 16 0.00 0.00
10:53 pm 22:53 Clear 47 8.3 29 -1.7 50 50 N 9 15 30.20 1023 10 16 0.00 0.00
11:53 pm 23:53 Clear 49 9.4 29 -1.7 46 46 NNE 12 19 30.21 1023 10 16 0.00 0.00

Powered by AerisWeather